Wind_Speed
20 17 13 12 11 11 11 11 12 12 11 11 11 12 12 13 12 9 7 8 2 9 5 7 9 9 8 4 2 3 3 2 6 7 4 4 4 9 12 15 1 5 10 18 22
23 21 17 14 12 11 10 11 11 11 11 11 10 10 10 11 11 13 18 12 9 5 7 5 5 5 2 3 1 3 3 3 2 7 5 2 2 5 5 17 13 16 18 25 24
25 24 21 18 14 12 11 11 10 11 11 10 9 9 7 8 4 8 6 19 13 9 10 8 9 2 3 1 1 2 4 5 3 5 6 1 8 8 10 7 19 21 19 19 21
24 25 26 22 18 13 11 11 10 11 10 9 7 6 4 3 3 3 4 15 19 11 10 2 1 1 2 4 0 3 5 4 7 5 5 3 5 9 9 8 18 22 22 20 15
24 24 25 25 22 19 14 12 11 11 10 7 5 3 2 1 8 4 0 11 16 13 9 4 2 2 2 3 2 4 4 6 6 5 5 5 4 5 18 17 18 17 19 19 14
24 24 25 25 24 24 19 13 11 10 8 5 2 1 1 2 5 9 9 13 12 15 9 8 4 3 2 7 10 8 4 7 3 3 4 2 3 2 7 6 18 19 19 16 15
24 24 25 25 26 24 23 15 12 11 6 2 1 2 0 11 4 9 8 12 16 14 5 9 9 2 6 7 4 15 8 4 2 2 3 5 4 3 4 4 12 19 16 17 15
24 24 25 25 27 24 22 15 10 8 2 1 2 3 7 10 9 10 13 8 11 14 17 17 18 3 5 9 7 8 7 3 7 6 1 4 6 6 6 5 5 2 15 15 17
25 25 26 27 29 25 23 13 7 3 1 1 2 2 9 10 7 14 20 9 16 15 17 16 2 3 4 6 4 2 5 3 5 10 2 4 5 8 4 1 3 4 17 15 12
26 26 27 27 29 28 23 9 3 0 2 0 4 4 6 4 7 12 19 14 4 4 4 1 5 4 1 3 5 7 5 6 3 11 7 10 6 5 1 4 2 0 10 14 15
27 27 28 29 27 31 21 1 3 2 3 9 7 5 5 8 13 11 17 11 2 3 4 4 3 7 10 7 2 9 5 6 3 1 5 6 5 8 1 2 1 3 5 14 14
29 29 29 29 31 27 6 3 7 4 7 14 15 7 14 8 2 4 19 6 4 6 1 4 6 10 10 5 6 8 5 4 4 5 3 8 11 3 2 6 6 7 5 11 12
31 30 31 30 28 3 6 13 15 17 3 8 9 7 8 10 9 8 10 5 4 4 6 7 8 10 12 8 9 4 6 7 14 7 2 1 7 5 5 4 3 6 5 6 16
31 31 32 33 2 13 8 7 27 1 4 6 4 6 5 6 3 10 17 7 3 11 6 7 7 17 8 5 6 4 11 11 15 10 3 2 4 5 4 8 7 10 10 11 13
32 34 30 22 16 6 7 21 22 6 3 5 4 3 8 9 3 4 20 3 7 9 3 10 9 9 6 12 14 11 8 9 7 13 5 4 1 6 4 4 7 8 13 16 16
38 34 30 7 11 18 15 23 3 5 5 3 7 6 7 4 3 8 6 1 3 4 3 9 8 10 13 15 16 9 2 4 5 5 3 11 5 7 5 7 4 6 10 17 16
40 32 25 13 6 2 18 3 5 3 6 4 7 7 9 7 3 9 7 4 4 3 5 9 9 4 5 3 3 5 6 3 3 3 4 6 3 9 3 5 11 13 13 13 14
39 27 11 14 5 3 5 5 3 2 5 4 1 6 8 7 6 8 7 5 7 6 2 3 9 6 5 8 9 2 8 5 6 3 0 5 4 6 7 9 8 4 8 14 14
38 13 6 2 7 5 5 3 6 6 2 7 9 6 6 8 6 6 10 8 8 11 8 6 7 6 8 7 9 4 2 7 5 1 4 3 2 7 6 3 8 5 7 11 11
23 11 6 2 10 7 4 4 4 3 6 3 1 6 3 6 3 6 8 8 6 12 9 7 3 3 5 3 2 7 4 3 3 2 3 3 3 4 4 9 10 10 7 8 11
7 4 1 12 14 5 3 6 5 6 7 4 7 6 6 2 1 3 7 11 15 6 13 7 4 8 3 6 8 2 1 1 5 5 5 4 6 7 11 9 13 14 10 10 10
8 2 5 18 3 1 2 4 5 11 11 8 4 9 4 2 4 2 4 6 5 9 9 10 6 3 7 7 3 5 4 5 5 4 1 4 4 4 9 6 4 10 11 6 12
3 3 6 6 1 2 6 7 8 14 11 6 4 0 3 2 4 4 5 8 5 3 5 6 1 2 8 6 6 5 3 5 3 3 3 5 5 1 6 16 12 11 7 8 8
2 4 4 4 1 3 5 6 7 8 7 6 6 1 5 6 2 5 5 7 7 4 6 6 5 7 6 7 3 4 2 2 5 3 3 4 6 6 6 9 7 14 11 10 8
1 2 1 4 5 7 2 5 8 8 3 3 7 8 6 4 5 4 4 7 8 11 5 6 5 6 5 3 4 4 3 3 4 5 5 6 9 11 12 14 14 12 8 8 8
3 4 5 4 5 6 4 4 10 16 4 7 5 6 10 6 2 4 2 3 3 7 6 6 2 1 1 4 5 4 7 7 7 3 4 8 5 7 3 5 8 10 12 9 9
7 6 3 4 5 4 2 10 11 11 8 3 3 4 4 3 5 6 3 3 4 0 3 1 2 3 5 4 4 1 10 8 8 5 6 6 9 5 6 8 9 8 9 9 6
Wind_Direction
8 1 346 336 329 323 323 319 318 319 316 316 315 313 313 308 303 283 249 223 198 235 271 280 274 278 278 249 243 86 74 84 163 179 234 295 351 323 101 137 179 201 130 142 146
14 8 358 346 331 324 319 317 317 317 315 314 315 316 318 320 316 260 244 237 220 244 217 252 279 346 300 260 289 106 77 221 223 179 186 224 216 306 126 104 96 96 113 140 149
15 12 6 359 346 332 324 320 318 316 314 312 316 322 329 336 326 250 262 218 204 211 253 268 286 52 260 68 218 152 130 172 188 169 151 330 294 346 135 120 145 142 150 154 157
12 12 11 5 358 342 330 323 321 316 310 310 317 326 338 11 198 308 294 198 201 226 246 259 353 358 20 218 110 123 155 154 139 153 129 206 291 311 217 173 158 152 163 159 167
8 6 7 7 3 355 336 324 318 315 312 310 313 327 82 33 252 265 118 182 195 206 222 198 298 182 268 125 197 72 106 109 110 140 177 174 272 280 133 153 162 156 163 168 170
0 0 360 1 0 359 345 324 316 315 309 310 299 29 97 272 262 234 210 187 190 191 219 194 209 155 124 60 41 350 102 140 169 157 137 75 312 326 71 157 156 164 171 173 173
355 354 354 353 354 351 348 327 317 319 309 307 260 104 312 241 202 199 189 209 199 198 219 232 252 96 154 121 17 44 20 311 188 254 158 167 340 303 110 27 163 171 177 177 185
350 348 347 347 347 344 342 325 313 318 316 286 139 138 245 243 210 234 208 198 195 218 236 266 278 258 94 127 43 76 329 271 192 185 269 183 233 259 85 49 10 154 170 171 168
346 344 342 342 342 338 343 325 308 312 202 186 133 175 268 307 192 224 214 208 213 228 245 267 355 80 59 95 75 104 254 194 176 190 181 197 250 237 134 61 334 338 161 166 165
344 342 339 337 338 334 340 326 310 350 98 261 260 318 276 238 201 212 205 223 181 198 324 20 54 89 18 120 187 174 219 243 170 196 190 213 248 269 322 177 252 185 179 171 169
344 341 337 334 335 328 332 306 32 10 204 207 196 222 273 244 208 198 210 224 116 103 183 271 111 213 213 206 138 140 194 232 200 216 179 235 227 213 108 264 250 337 193 180 177
345 342 337 333 332 321 310 185 216 125 292 227 244 257 259 277 242 213 188 157 125 214 145 6 235 223 225 181 129 162 158 270 354 105 80 236 245 349 184 198 206 152 228 180 171
344 341 336 331 328 354 309 253 299 328 320 280 194 209 230 157 222 204 142 173 182 217 202 181 244 179 179 179 199 228 185 172 158 150 193 172 301 257 256 258 227 190 127 188 169
343 340 336 333 357 328 264 322 326 227 28 278 181 247 175 176 242 180 182 147 200 221 230 215 205 184 190 206 160 197 232 193 158 148 220 177 266 292 215 232 215 187 176 193 174
341 335 333 335 300 288 294 324 336 140 3 236 189 197 161 159 172 251 182 94 212 254 148 247 160 185 213 221 177 229 224 181 214 162 135 207 292 261 175 252 231 194 190 190 192
336 332 329 318 285 278 318 328 1 51 258 250 167 157 125 212 226 170 174 267 179 220 227 246 196 172 202 230 187 242 196 63 140 196 190 203 159 276 188 194 201 186 196 189 195
332 330 311 274 233 266 332 21 51 160 312 209 170 149 177 203 206 166 187 204 177 35 319 328 299 259 201 262 328 89 68 5 355 5 207 151 99 247 6 194 205 205 190 195 195
332 331 304 260 268 274 355 58 192 254 272 329 106 171 189 191 207 183 152 196 257 160 192 220 311 210 224 187 194 206 157 159 196 217 117 336 238 261 281 198 224 131 202 183 192
335 340 304 223 191 182 73 102 212 214 335 6 343 176 250 224 156 149 187 199 215 171 174 184 262 286 172 188 137 255 143 200 148 48 106 274 288 296 44 320 289 262 159 175 184
335 335 275 149 162 123 75 233 246 286 346 58 191 313 13 344 170 193 175 225 244 186 189 216 286 291 269 105 197 148 181 24 5 130 88 340 304 230 256 237 260 277 256 241 206
352 14 40 158 145 55 174 234 293 289 317 334 302 283 206 184 272 222 234 253 217 246 175 166 132 286 87 177 203 336 1 58 124 136 156 159 254 231 223 211 223 240 255 226 180
352 17 112 158 59 174 203 233 284 288 294 285 232 239 225 213 235 270 252 236 205 224 165 195 159 167 217 265 189 113 130 130 122 269 102 127 257 294 184 194 180 209 195 134 185
351 276 329 185 176 284 289 285 276 283 271 269 282 14 90 50 7 233 300 289 346 78 176 176 38 50 345 351 15 112 173 143 154 84 184 131 243 179 177 134 158 105 106 133 134
9 355 324 36 77 34 353 299 322 308 297 11 284 206 28 350 113 287 322 352 306 310 48 56 120 150 177 212 148 240 292 63 114 106 167 206 177 223 155 138 136 146 162 160 156
112 281 348 328 328 324 278 266 308 323 292 28 332 11 335 291 321 323 342 355 336 18 332 120 175 143 185 217 159 212 200 272 183 167 138 216 185 214 183 174 172 168 162 150 154
44 32 341 279 302 346 339 335 340 341 296 303 45 342 39 61 328 306 332 39 235 322 0 353 234 140 144 143 174 208 247 253 242 254 160 170 239 233 170 88 141 168 159 159 177
346 336 114 285 330 9 307 349 344 355 306 50 44 11 20 14 318 260 240 195 240 323 320 314 113 73 256 13 31 11 224 210 239 253 166 156 222 152 128 158 163 176 173 178 165
Height
801 798 796 794 792 790 789 788 786 785 783 782 781 780 779 777 777 775 774 769 769 771 772 771 773 775 777 776 772 775 807 812 815 819 804 791 794 782 770 782 780 781 785 792 799
802 799 796 793 791 789 788 786 785 784 782 781 780 779 778 777 775 771 763 765 767 769 771 771 771 774 780 775 775 786 809 801 790 794 799 794 795 787 787 786 793 790 792 797 800
803 800 796 793 790 788 787 785 784 782 781 780 779 779 778 777 777 761 757 760 765 768 769 770 771 776 782 775 779 784 799 792 793 792 792 793 790 785 789 797 789 793 794 797 801
804 800 797 793 790 787 785 784 782 781 780 779 779 778 778 778 786 756 755 757 763 767 768 769 771 779 784 786 776 791 784 785 790 790 793 796 791 789 785 787 783 784 788 794 799
804 801 797 793 790 787 784 783 781 780 779 778 778 778 779 780 770 756 756 758 762 765 765 768 773 776 787 782 780 789 790 785 789 791 790 791 793 791 778 779 781 785 790 793 798
804 800 797 793 789 786 783 781 779 778 777 777 778 778 779 784 755 755 756 758 760 763 763 764 767 769 776 786 793 791 788 790 792 793 790 793 793 788 785 778 783 786 790 793 795
803 800 796 792 788 785 781 779 777 776 776 776 777 778 780 768 754 755 755 755 758 760 761 762 763 770 771 795 790 799 811 800 795 795 793 791 798 795 785 782 781 787 789 791 791
802 798 795 791 787 783 780 777 776 775 775 775 776 778 774 752 755 755 756 755 757 759 759 759 761 764 772 783 797 809 816 823 798 795 790 794 814 791 783 785 786 783 787 791 791
800 796 792 788 784 780 778 775 774 774 774 775 777 777 770 750 749 749 753 752 754 756 757 758 760 770 777 797 817 821 829 815 805 791 796 800 806 786 783 787 787 787 786 789 792
798 794 789 785 782 777 775 773 772 773 775 776 776 781 757 750 744 746 749 750 753 754 760 761 773 789 792 801 819 821 825 806 807 797 796 800 800 789 781 783 786 783 789 788 788
795 791 786 782 778 774 772 773 776 777 773 766 759 757 749 741 743 744 745 748 751 759 780 770 792 803 791 785 783 794 807 805 794 786 796 798 797 787 783 783 787 786 785 787 787
793 788 783 778 775 770 769 770 762 762 771 750 749 749 742 743 750 741 743 756 761 779 771 785 798 778 771 781 785 793 800 806 792 787 805 800 791 787 780 779 777 783 783 785 787
790 785 780 774 769 767 767 762 758 762 772 747 740 743 739 739 748 746 743 750 762 775 776 793 775 763 770 781 787 789 792 796 801 793 801 802 805 796 779 776 777 777 774 780 779
787 783 777 770 769 766 762 757 757 758 792 764 744 735 733 735 746 732 737 747 760 772 770 778 758 765 776 779 784 800 761 768 780 804 823 803 827 794 785 782 778 776 774 778 776
784 779 775 773 769 765 757 755 752 757 820 742 741 720 723 740 736 738 730 742 761 762 762 775 770 773 778 766 767 777 752 763 768 796 811 810 818 788 781 788 780 778 773 772 771
779 774 770 769 766 756 755 752 751 797 811 749 730 737 742 738 736 735 738 734 737 754 755 759 744 754 757 745 752 742 755 766 780 794 818 800 808 795 787 776 772 768 764 764 767
772 767 764 763 758 754 754 753 797 812 749 747 746 737 745 750 745 745 752 758 771 780 785 766 753 740 733 749 744 748 785 819 814 818 819 803 802 792 763 759 756 757 762 761 764
764 758 754 752 753 755 755 777 803 771 761 732 736 740 754 743 749 749 757 769 757 765 784 793 793 746 730 744 759 759 779 817 823 821 814 802 808 781 747 746 745 752 751 757 762
759 753 751 748 749 755 765 801 791 771 746 753 743 754 756 738 741 750 759 763 749 754 780 796 780 728 724 725 739 757 777 762 790 792 806 812 781 761 752 754 751 751 756 757 756
759 755 750 748 750 755 777 792 773 749 746 749 769 752 758 752 749 755 760 735 738 733 734 754 774 733 727 720 728 744 742 781 799 803 820 811 796 794 768 767 759 757 751 751 751
762 762 747 749 752 765 788 783 760 743 744 752 756 764 751 748 744 747 748 727 718 719 729 740 758 753 733 745 753 754 761 764 776 795 809 832 813 769 758 753 756 754 748 743 743
773 773 750 751 770 775 780 763 749 745 738 745 738 741 737 740 747 745 741 729 707 708 737 727 758 770 752 728 724 741 753 771 798 787 798 806 798 747 740 740 739 747 746 743 742
788 779 749 750 782 780 766 758 749 745 740 740 736 729 730 739 753 739 729 707 700 707 722 719 759 784 771 750 736 744 747 760 769 785 792 804 796 743 743 735 742 743 742 744 745
790 788 765 760 768 772 775 764 757 735 734 730 732 721 730 740 738 745 734 716 707 700 706 717 749 765 786 767 751 752 738 741 763 788 788 787 772 755 747 745 740 737 740 741 742
791 788 783 792 779 778 771 763 759 753 733 731 735 735 738 743 744 744 736 730 712 712 709 721 747 743 741 737 740 744 738 741 753 756 771 765 765 750 746 740 737 735 739 741 743
795 796 791 789 781 779 771 766 764 753 749 742 747 738 742 757 754 750 739 736 736 725 727 727 743 732 742 733 735 745 739 735 740 736 744 754 761 734 733 738 739 738 738 742 742
796 794 794 789 785 784 778 772 764 760 745 736 737 741 744 741 735 733 726 729 728 732 738 742 747 760 763 749 747 763 743 738 734 729 730 763 745 731 736 736 737 739 737 739 739